Regional Weather Roundup
Issued by NWS

Home | Current Version | Previous Version | Text Only | Print | Product List | Glossary On
Versions: 1 2 3 4 5 6 7 8 9 10 11 12 13 14 15 16 17 18 19 20 21 22 23 24 25 26 27 28 29 30 31 32 33 34 35 36 37 38 39 40 41 42 43 44 45 46 47 48 49 50
000
ASCA42 TJSJ 230011
RWRPR
PUERTO RICO/U.S. VIRGIN ISLANDS HOURLY WEATHER ROUNDUP
NATIONAL WEATHER SERVICE SAN JUAN PR
800 PM AST MON SEP 22 2014

PRZ001-004-230100-
PUERTO RICO

CITY           SKY/WX    TMP DP  RH WIND       PRES   REMARKS
SAN JUAN LMM   PTCLDY    81  77  89 E5        29.93R
AGUADILLA      PTCLDY    81  75  83 E7        29.93R
CEIBA          HVY RAIN  77  75  94 CALM      29.96R VSB 1
$$

PRZ006-007-230100-
U.S. VIRGIN ISLANDS

CITY           SKY/WX    TMP DP  RH WIND       PRES   REMARKS
CHRISTIANSTED  CLEAR     82  75  78 E10       29.93S
$$

HOURLY WEATHER ROUNDUP FOR THE NEWS MEDIA

CITY           SKY/WX    TMP DP  RH WIND       PRES   REMARKS
MIAMI          CLOUDY    84  75  74 N6        29.99R HX  92
ORLANDO        CLOUDY    73  69  87 S12       30.04R
NEW YORK       MOCLDY    62  39  42 NW16G25   30.06R
NEWARK         MOCLDY    61  41  47 NW15G22   30.07R
CHICAGO        CLEAR     65  43  44 CALM      30.23R
HARTFORD       CLEAR     59  45  59 VRB5      29.95R
BOSTON         PTCLDY    61  41  47 W16G25    29.96R
DALLAS         PTCLDY    83  48  29 E9        30.10S
PHILADELPHIA   MOCLDY    65  44  46 NW9       30.09R


USA.gov is the U.S. government's official web portal to all federal, state and local government web resources and services.